1485428400.47,11905,8.38,73834.0,-2.81,-40.09,-40.47,0,*5D
1485428401.71,11906,8.38,73828.8,-2.81,-38.97,-39.53,0,*5D
1485428402.98,11907,8.38,73832.5,-2.81,-39.79,-40.15,0,*51
1485428404.21,11908,8.38,73828.8,-2.85,-40.53,-40.91,0,*50
1485428405.48,11909,8.38,73826.3,-2.85,-40.03,-40.41,0,*59
1485428406.69,11910,8.38,73830.8,-2.83,-39.85,-40.35,0,*54
1485428407.92,11911,8.38,73832.8,-2.87,-40.09,-40.47,0,*5E
1485428409.18,11912,8.38,73830.3,-2.89,-39.41,-39.85,0,*51
1485428410.46,11913,8.38,73830.5,-2.89,-39.29,-39.79,0,*5D
1485428411.72,11914,8.38,73828.8,-2.89,-38.49,-38.73,0,*56
1485428412.98,11915,8.38,73838.3,-2.89,-38.85,-39.29,0,*59
1485428414.24,11916,8.38,73838.0,-2.89,-37.87,-38.11,0,*5D
1485428415.52,11917,8.38,73836.3,-2.89,-38.67,-39.23,0,*5D
1485428416.75,11918,8.38,73836.3,-2.89,-37.87,-38.05,0,*56
1485428417.98,11919,8.38,73834.5,-2.89,-37.57,-37.87,0,*5F
1485428419.27,11920,8.38,73836.0,-2.89,-37.93,-38.29,0,*56
1485428420.53,11921,8.38,73838.3,-2.87,-37.69,-37.93,0,*52
1485428421.8,11922,8.38,73832.5,-2.87,-37.93,-38.29,0,*5A
1485428423.03,11923,8.38,73834.3,-2.87,-37.75,-38.23,0,*59
1485428424.3,11924,8.38,73830.5,-2.85,-37.99,-38.17,0,*59
1485428425.52,11925,8.38,73834.3,-2.85,-38.97,-39.35,0,*58
1485428426.81,11926,8.38,73828.5,-2.85,-37.99,-38.23,0,*5C
1485428428.07,11927,8.38,73830.3,-2.85,-38.43,-38.67,0,*55
1485428429.33,11928,8.38,73834.0,-2.87,-38.67,-38.91,0,*57
1485428430.56,11929,8.38,73832.0,-2.87,-37.87,-38.11,0,*5F
1485428431.83,11930,8.38,73836.0,-2.87,-37.93,-38.23,0,*53
1485428433.07,11931,8.38,73834.8,-2.87,-37.87,-38.11,0,*56
1485428434.31,11932,8.38,73838.3,-2.87,-38.49,-38.85,0,*55
1485428435.56,11933,8.38,73834.0,-2.89,-38.05,-38.11,0,*5F
1485428436.82,11934,8.38,73834.5,-2.87,-37.39,-37.69,0,*56
1485428438.12,11935,8.38,73836.0,-2.85,-37.81,-38.23,0,*57
1485428439.4,11936,8.38,73834.0,-2.85,-37.51,-37.69,0,*58
1485428440.63,11937,8.38,73834.5,-2.83,-37.09,-37.33,0,*5D
1485428441.84,11938,8.38,73832.0,-2.83,-37.87,-38.17,0,*5D
1485428443.1,11939,8.38,73832.3,-2.83,-37.99,-38.23,0,*54
1485428444.33,11940,8.38,73830.8,-2.83,-37.33,-37.51,0,*50
1485428445.56,11941,8.38,73832.3,-2.83,-37.45,-37.51,0,*50
1485428446.82,11942,8.38,73832.0,-2.83,-37.51,-37.69,0,*5D
1485428448.07,11943,8.38,73830.3,-2.81,-37.39,-37.57,0,*5D
1485428449.3,11944,8.38,73830.3,-2.81,-37.45,-37.75,0,*51
1485428450.5,11945,8.38,73828.5,-2.79,-37.75,-38.05,0,*5C
1485428451.73,11946,8.38,73834.3,-2.81,-37.45,-37.75,0,*53
1485428452.99,11947,8.38,73832.0,-2.81,-37.57,-37.99,0,*53
1485428454.25,11948,8.38,73830.3,-2.79,-37.51,-37.93,0,*57
1485428455.48,11949,8.38,73828.5,-2.79,-37.39,-37.57,0,*50
1485428456.72,11950,8.38,73828.5,-2.79,-37.15,-37.39,0,*5E
1485428457.92,11951,8.38,73828.8,-2.79,-37.75,-38.05,0,*59
1485428459.16,11952,8.38,73830.5,-2.77,-38.55,-38.85,0,*51
1485428460.37,11953,8.38,73828.3,-2.79,-37.87,-38.05,0,*56
1485428461.62,11954,8.38,73830.0,-2.79,-37.39,-37.69,0,*51
1485428462.86,11955,8.38,73830.0,-2.79,-37.51,-37.75,0,*53
1485428464.11,11956,8.38,73828.5,-2.77,-37.57,-37.93,0,*50
1485428465.38,11957,8.38,73828.3,-2.77,-37.15,-37.39,0,*57
1485428466.64,11958,8.38,73828.3,-2.77,-37.33,-37.51,0,*52
1485428467.9,11959,8.38,73832.3,-2.75,-37.33,-37.51,0,*51
1485428469.13,11960,8.38,73838.8,-2.73,-37.69,-38.05,0,*5C
1485428470.42,11961,8.38,73834.0,-2.75,-37.69,-37.99,0,*51
1485428471.68,11962,8.38,73828.3,-2.75,-37.33,-37.51,0,*59
1485428472.98,11963,8.38,73830.5,-2.75,-37.81,-37.99,0,*55
1485428474.25,11964,8.38,73834.0,-2.75,-37.63,-37.87,0,*51
1485428475.49,11965,8.38,73830.3,-2.75,-37.15,-37.33,0,*5E
1485428476.72,11966,8.38,73834.3,-2.75,-37.15,-37.33,0,*5D
1485428477.94,11967,8.38,73830.0,-2.69,-36.85,-37.03,0,*5A
1485428479.15,11968,8.38,73830.5,-2.73,-37.03,-37.15,0,*56
1485428480.42,11969,8.38,73830.5,-2.69,-37.21,-37.39,0,*52
1485428481.68,11970,8.38,73834.0,-2.69,-37.63,-37.93,0,*5C
1485428482.92,11971,8.38,73832.8,-2.69,-37.57,-37.81,0,*59
1485428484.13,11972,8.38,73832.5,-2.69,-37.27,-37.45,0,*55
1485428485.38,11973,8.38,73828.5,-2.69,-37.27,-37.63,0,*50
1485428486.62,11974,8.38,73828.0,-2.69,-37.45,-37.63,0,*53
1485428487.86,11975,8.38,73834.3,-2.69,-37.45,-37.81,0,*5E
1485428489.11,11976,8.38,73834.3,-2.69,-36.97,-37.09,0,*53
1485428490.37,11977,8.38,73832.0,-2.67,-36.97,-37.09,0,*5C
1485428491.62,11978,8.38,73832.3,-2.65,-36.79,-36.91,0,*51
1485428492.88,11979,8.38,73832.0,-2.65,-36.61,-36.79,0,*5F
1485428494.11,11980,8.38,73834.8,-2.65,-37.15,-37.39,0,*5E
1485428495.35,11981,8.38,73830.0,-2.65,-37.69,-37.87,0,*51
1485428496.61,11982,8.38,73832.0,-2.65,-37.21,-37.51,0,*55
1485428497.85,11983,8.38,73834.3,-2.65,-37.15,-37.39,0,*5D
1485428499.11,11984,8.38,73834.0,-2.65,-36.61,-36.91,0,*5B
1485428500.35,11985,8.38,73834.0,-2.61,-36.37,-36.55,0,*55
1485428501.59,11986,8.38,73834.0,-2.63,-36.97,-37.15,0,*5B
1485428502.79,11987,8.38,73832.8,-2.61,-37.27,-37.33,0,*56
1485428504.03,11988,8.38,73830.3,-2.61,-36.85,-36.91,0,*59
1485428505.26,11989,8.38,73828.3,-2.57,-36.85,-37.09,0,*5D
1485428506.55,11990,8.38,73834.3,-2.59,-37.09,-37.09,0,*5E
1485428507.78,11991,8.38,73830.3,-2.59,-37.15,-37.45,0,*5A
1485428509.01,11992,8.38,73828.0,-2.57,-36.85,-37.09,0,*57
1485428510.27,11993,8.38,73828.0,-2.59,-37.09,-37.27,0,*51
1485428511.5,11994,8.38,73830.3,-2.57,-36.49,-36.67,0,*58
1485428512.7,11995,8.38,73830.3,-2.57,-36.67,-36.85,0,*59
1485428513.98,11996,8.38,73826.8,-2.55,-36.61,-36.79,0,*5D
1485428515.23,11997,8.38,73824.3,-2.55,-37.33,-37.69,0,*5A
1485428516.49,11998,8.38,73828.0,-2.55,-37.03,-37.39,0,*53
1485428517.75,11999,8.38,73832.0,-2.55,-37.69,-37.87,0,*5B
1485428518.98,12000,8.38,73828.0,-2.55,-37.57,-37.75,0,*51
1485428520.22,12001,8.38,73830.8,-2.55,-36.97,-37.15,0,*5B
1485428521.51,12002,8.38,73830.8,-2.55,-37.21,-37.39,0,*5A
1485428522.79,12003,8.38,73828.0,-2.55,-36.79,-36.79,0,*52
1485428524.05,12004,8.38,73826.5,-2.55,-37.15,-37.21,0,*52
1485428525.26,12005,8.38,73830.5,-2.53,-36.97,-37.15,0,*59
1485428526.54,12006,8.38,73828.3,-2.55,-37.39,-37.69,0,*52
1485428527.75,12007,8.38,73830.3,-2.53,-37.57,-37.75,0,*50
1485428528.98,12008,8.38,73830.3,-2.55,-37.03,-37.15,0,*5E
1485428530.21,12009,8.38,73826.8,-2.49,-37.09,-37.33,0,*5C
1485428531.47,12010,8.38,73834.8,-2.51,-37.15,-37.51,0,*54
1485428532.7,12011,8.38,73830.0,-2.51,-36.97,-37.27,0,*5F
1485428533.96,12012,8.38,73832.0,-2.51,-37.63,-37.87,0,*5C
1485428535.22,12013,8.38,73828.5,-2.51,-37.33,-37.63,0,*52
1485428536.48,12014,8.38,73828.8,-2.51,-37.87,-38.23,0,*51
1485428537.72,12015,8.38,73830.5,-2.51,-36.97,-37.15,0,*5A
1485428538.98,12016,8.38,73830.3,-2.51,-36.73,-36.79,0,*58
1485428540.2,12017,8.38,73832.5,-2.49,-37.45,-37.69,0,*54
1485428541.42,12018,8.38,73830.8,-2.51,-37.27,-37.45,0,*58
1485428542.66,12019,8.38,73830.3,-2.49,-37.33,-37.63,0,*51
1485428543.89,12020,8.38,73828.8,-2.49,-37.27,-37.63,0,*5E
1485428545.15,12021,8.38,73830.3,-2.51,-37.09,-37.27,0,*5A
1485428546.38,12022,8.38,73826.5,-2.49,-37.27,-37.63,0,*5C
1485428547.64,12023,8.38,73826.5,-2.49,-37.69,-37.93,0,*58
1485428548.87,12024,8.38,73824.3,-2.45,-37.57,-37.81,0,*5D
1485428550.13,12025,8.38,73830.5,-2.49,-37.51,-37.81,0,*56
1485428551.38,12026,8.38,73834.3,-2.51,-38.11,-38.61,0,*56
1485428552.64,12027,8.38,73830.3,-2.51,-38.05,-38.49,0,*58
1485428553.87,12028,8.38,73838.0,-2.49,-37.69,-37.87,0,*56
1485428555.12,12029,8.38,73830.0,-2.51,-38.11,-38.61,0,*59
1485428556.37,12030,8.38,73830.3,-2.51,-38.97,-39.41,0,*5C
1485428557.65,12031,8.38,73826.8,-2.51,-37.63,-37.93,0,*58
1485428558.93,12032,8.38,73826.8,-2.51,-37.51,-37.93,0,*5A
1485428560.18,12033,8.38,73824.8,-2.51,-37.45,-37.69,0,*5B
1485428561.46,12034,8.38,73824.5,-2.51,-37.81,-38.11,0,*54
1485428562.72,12035,8.38,73822.8,-2.51,-39.15,-39.47,0,*54
1485428563.99,12036,8.38,73822.8,-2.51,-38.67,-39.03,0,*53
1485428565.2,12037,8.38,73816.0,-2.53,-38.73,-39.09,0,*5F
1485428566.45,12038,8.38,73822.3,-2.55,-38.35,-38.91,0,*54
1485428567.74,12039,8.38,73822.3,-2.55,-39.71,-40.09,0,*5A
1485428568.97,12040,8.38,73822.8,-2.57,-40.59,-41.17,0,*5C
1485428570.23,12041,8.38,73822.5,-2.59,-40.59,-41.03,0,*56
1485428571.47,12042,8.38,73826.8,-2.61,-40.97,-41.41,0,*5A
1485428572.73,12043,8.38,73826.8,-2.63,-40.47,-40.85,0,*5D
1485428573.96,12044,8.38,73828.3,-2.67,-40.73,-41.17,0,*53
1485428575.22,12045,8.38,73828.3,-2.67,-39.35,-39.71,0,*51
1485428576.44,12046,8.38,73828.5,-2.67,-38.97,-39.47,0,*5E
1485428577.67,12047,8.38,73830.5,-2.67,-38.97,-39.35,0,*5A
1485428578.93,12048,8.38,73828.3,-2.67,-38.55,-38.91,0,*54
1485428580.22,12049,8.38,73832.3,-2.67,-37.81,-37.93,0,*5E
1485428581.45,12050,8.38,73830.8,-2.67,-37.45,-37.75,0,*56
1485428582.67,12051,8.38,73828.8,-2.65,-37.33,-37.69,0,*59
1485428583.91,12052,8.38,73826.8,-2.65,-38.43,-38.91,0,*5A
1485428585.12,12053,8.38,73828.5,-2.65,-38.85,-39.09,0,*51
1485428586.35,12054,8.38,73836.0,-2.67,-38.35,-38.73,0,*53
1485428587.58,12055,8.38,73832.5,-2.67,-39.09,-39.47,0,*5A
1485428588.86,12056,8.38,73830.0,-2.67,-37.93,-37.93,0,*53
1485428590.12,12057,8.38,73826.0,-2.67,-37.45,-37.93,0,*59
1485428591.35,12058,8.38,73830.0,-2.65,-38.55,-38.91,0,*57
1485428592.61,12059,8.38,73826.8,-2.65,-38.79,-39.03,0,*52
1485428593.87,12060,8.38,73828.0,-2.67,-38.55,-38.79,0,*58
1485428595.13,12061,8.38,73826.8,-2.67,-37.75,-37.99,0,*55
1485428596.34,12062,8.38,73826.8,-2.65,-37.57,-37.87,0,*5B
1485428597.6,12063,8.38,73828.8,-2.65,-38.11,-38.49,0,*5A
1485428598.81,12064,8.38,73830.0,-2.65,-38.17,-38.55,0,*56
1485428600.07,12065,8.38,73830.0,-2.67,-38.11,-38.55,0,*53
1485428601.3,12066,8.38,73826.0,-2.67,-38.61,-39.09,0,*5F
1485428602.59,12067,8.38,73822.3,-2.67,-37.99,-38.23,0,*5F
1485428603.85,12068,8.38,73828.0,-2.65,-38.11,-38.49,0,*51
1485428605.1,12069,8.38,73824.5,-2.65,-38.67,-39.23,0,*5C
1485428606.39,12070,8.38,73826.8,-2.67,-39.71,-40.29,0,*54
1485428607.65,12071,8.38,73828.0,-2.67,-38.61,-38.91,0,*59
1485428608.91,12072,8.38,73824.3,-2.67,-38.43,-38.79,0,*5C
1485428610.17,12073,8.38,73824.8,-2.67,-38.35,-38.79,0,*5C
1485428611.38,12074,8.38,73824.3,-2.65,-37.87,-38.17,0,*57
1485428612.62,12075,8.38,73822.5,-2.69,-37.63,-38.17,0,*50
1485428613.88,12076,8.38,73828.5,-2.69,-38.79,-39.29,0,*5B
1485428615.16,12077,8.38,73824.5,-2.67,-38.91,-39.29,0,*52
1485428616.42,12078,8.38,73824.3,-2.67,-38.11,-38.17,0,*59
1485428617.65,12079,8.38,73830.5,-2.67,-37.57,-37.75,0,*5E
1485428618.91,12080,8.38,73824.8,-2.67,-38.11,-38.43,0,*5F
1485428620.2,12081,8.38,73826.0,-2.67,-37.63,-37.81,0,*55
1485428621.46,12082,8.38,73830.3,-2.65,-37.39,-37.51,0,*56
1485428622.72,12083,8.38,73830.5,-2.67,-37.27,-37.63,0,*5B
1485428623.96,12084,8.38,73828.3,-2.65,-36.91,-37.15,0,*53
1485428625.22,12085,8.38,73828.5,-2.65,-36.91,-37.21,0,*55
1485428626.45,12086,8.38,73832.8,-2.65,-38.05,-38.49,0,*54
1485428627.68,12087,8.38,73832.8,-2.65,-37.57,-37.93,0,*55
1485428628.92,12088,8.38,73834.3,-2.63,-36.97,-37.15,0,*5F
1485428630.18,12089,8.38,73832.5,-2.63,-37.33,-37.69,0,*5A
1485428631.41,12090,8.38,73832.0,-2.61,-37.33,-37.51,0,*5B
1485428632.66,12091,8.38,73838.0,-2.61,-37.51,-37.69,0,*55
1485428633.9,12092,8.38,73836.5,-2.61,-37.69,-37.87,0,*5D
1485428635.14,12093,8.38,73832.5,-2.61,-37.27,-37.51,0,*5D
1485428636.36,12094,8.38,73832.0,-2.61,-37.45,-37.69,0,*55
1485428637.63,12095,8.38,73832.0,-2.59,-37.27,-37.51,0,*50
1485428638.89,12096,8.38,73836.0,-2.57,-37.39,-37.63,0,*53
1485428640.15,12097,8.38,73832.3,-2.59,-36.91,-37.03,0,*59
1485428641.38,12098,8.38,73834.3,-2.57,-37.57,-37.81,0,*59
1485428642.64,12099,8.31,73830.8,-2.57,-36.91,-37.09,0,*53
1485428643.87,12100,8.38,73830.8,-2.57,-37.03,-37.21,0,*52
1485428645.1,12101,8.38,73832.0,-2.57,-37.09,-37.27,0,*5F
1485428646.32,12102,8.38,73834.5,-2.57,-37.39,-37.75,0,*58
1485428647.59,12103,8.38,73832.8,-2.55,-37.21,-37.57,0,*52
1485428648.87,12104,8.38,73834.3,-2.55,-37.69,-37.93,0,*51
1485428650.08,12105,8.38,73834.3,-2.53,-37.33,-37.57,0,*51
1485428651.33,12106,8.38,73832.0,-2.53,-37.39,-37.69,0,*55
1485428652.54,12107,8.38,73832.5,-2.53,-36.55,-36.73,0,*55
1485428653.75,12108,8.38,73838.8,-2.53,-36.73,-36.85,0,*57
1485428654.97,12109,8.38,73834.0,-2.51,-37.27,-37.45,0,*59
1485428656.23,12110,8.38,73832.8,-2.51,-37.27,-37.63,0,*55
1485428657.49,12111,8.38,73834.5,-2.49,-37.51,-37.81,0,*50
1485428658.76,12112,8.38,73830.8,-2.51,-37.81,-37.87,0,*51
1485428660.02,12113,8.38,73836.3,-2.49,-37.63,-37.81,0,*53
1485428661.28,12114,8.38,73836.8,-2.51,-37.33,-37.63,0,*54
1485428662.53,12115,8.38,73834.3,-2.51,-38.05,-38.49,0,*58
1485428663.82,12116,8.38,73834.0,-2.51,-37.63,-37.81,0,*5F
1485428665.08,12117,8.38,73834.5,-2.51,-37.33,-37.63,0,*57
1485428666.34,12118,8.38,73832.5,-2.51,-38.05,-38.29,0,*53
1485428667.6,12119,8.38,73832.5,-2.49,-37.93,-38.29,0,*5B
1485428668.8,12120,8.38,73832.5,-2.49,-38.05,-38.43,0,*5D
1485428670.06,12121,8.38,73834.3,-2.51,-37.27,-37.63,0,*57
1485428671.32,12122,8.38,73830.0,-2.49,-37.93,-38.23,0,*59
1485428672.55,12123,8.38,73832.0,-2.49,-37.45,-37.81,0,*54
1485428673.81,12124,8.38,73826.0,-2.49,-37.69,-37.93,0,*5E
1485428675.09,12125,8.38,73830.5,-2.51,-38.11,-38.49,0,*5E
1485428676.34,12126,8.38,73830.3,-2.51,-38.43,-38.67,0,*56
1485428677.57,12127,8.38,73830.8,-2.49,-37.27,-37.51,0,*59
1485428678.86,12128,8.38,73830.0,-2.51,-37.63,-37.81,0,*52
1485428680.06,12129,8.38,73832.5,-2.49,-37.15,-37.45,0,*53
1485428681.29,12130,8.38,73834.8,-2.49,-37.27,-37.51,0,*5F
1485428682.5,12131,8.38,73832.3,-2.49,-36.97,-37.15,0,*54
1485428683.74,12132,8.38,73838.3,-2.43,-36.49,-36.73,0,*5F
1485428684.97,12133,8.38,73830.3,-2.43,-37.09,-37.45,0,*5F
1485428686.18,12134,8.31,73830.5,-2.43,-37.87,-38.17,0,*56
1485428687.42,12135,8.38,73834.5,-2.43,-37.99,-38.43,0,*59
1485428688.64,12136,8.38,73834.3,-2.43,-38.05,-38.35,0,*51
1485428689.88,12137,8.38,73828.3,-2.43,-37.57,-37.63,0,*54
1485428691.12,12138,8.38,73832.5,-2.43,-37.39,-37.57,0,*54
1485428692.35,12139,8.38,73832.3,-2.45,-37.99,-38.43,0,*53
1485428693.59,12140,8.38,73836.0,-2.43,-37.81,-38.17,0,*53
1485428694.83,12141,8.38,73828.8,-2.41,-36.85,-37.03,0,*5F
1485428696.07,12142,8.38,73830.5,-2.41,-36.97,-37.33,0,*5C
1485428697.33,12143,8.38,73834.0,-2.41,-36.85,-37.21,0,*5D
1485428698.57,12144,8.38,73830.8,-2.39,-37.33,-37.51,0,*5E
1485428699.83,12145,8.38,73828.5,-2.41,-37.57,-37.81,0,*5F
1485428701.09,12146,8.38,73834.0,-2.41,-37.39,-37.57,0,*5F
1485428702.34,12147,8.38,73830.5,-2.39,-37.15,-37.39,0,*57
1485428703.58,12148,8.38,73830.8,-2.39,-37.15,-37.39,0,*58
1485428704.82,12149,8.38,73830.8,-2.39,-37.15,-37.51,0,*57
1485428706.06,12150,8.38,73834.3,-2.39,-37.33,-37.51,0,*5B
1485428707.33,12151,8.38,73824.3,-2.39,-37.51,-37.51,0,*5E
1485428708.54,12152,8.38,73830.3,-2.39,-37.03,-37.33,0,*5E
1485428709.8,12153,8.38,73830.5,-2.37,-37.45,-37.69,0,*5C
1485428711.01,12154,8.38,73832.0,-2.35,-37.27,-37.45,0,*53
1485428712.27,12155,8.38,73832.0,-2.37,-37.27,-37.51,0,*55
1485428713.49,12156,8.38,73832.5,-2.35,-37.87,-38.35,0,*53
1485428714.76,12157,8.38,73828.5,-2.35,-37.69,-37.99,0,*5B
1485428716.05,12158,8.38,73832.0,-2.37,-37.51,-37.63,0,*58
1485428717.28,12159,8.38,73830.5,-2.37,-37.27,-37.45,0,*5C
1485428718.54,12160,8.38,73832.8,-2.35,-37.39,-37.69,0,*55
1485428719.8,12161,8.38,73834.3,-2.37,-37.33,-37.51,0,*57
1485428721.02,12162,8.38,73830.3,-2.35,-36.85,-37.03,0,*5D
1485428722.28,12163,8.38,73828.0,-2.35,-37.63,-37.99,0,*56
1485428723.54,12164,8.38,73828.8,-2.33,-38.23,-38.73,0,*57
1485428724.75,12165,8.38,73830.5,-2.35,-38.17,-38.61,0,*54
1485428726.01,12166,8.38,73828.5,-2.37,-37.75,-38.11,0,*59
1485428727.29,12167,8.38,73826.8,-2.33,-37.63,-37.69,0,*5B
1485428728.53,12168,8.38,73828.3,-2.35,-36.85,-36.91,0,*5D
1485428729.74,12169,8.38,73830.5,-2.35,-36.85,-37.03,0,*56
1485428731.03,12170,8.38,73830.3,-2.37,-36.79,-37.09,0,*55
1485428732.27,12171,8.38,73832.8,-2.31,-37.33,-37.51,0,*50
1485428733.51,12172,8.38,73830.3,-2.31,-37.15,-37.39,0,*59
1485428734.78,12173,8.38,73832.5,-2.33,-37.21,-37.45,0,*56
1485428735.99,12174,8.38,73830.5,-2.31,-36.67,-36.97,0,*5E
1485428737.23,12175,8.38,73832.0,-2.31,-36.97,-37.21,0,*5C
1485428738.48,12176,8.38,73830.5,-2.31,-37.75,-37.99,0,*51
1485428739.71,12177,8.38,73830.3,-2.31,-37.39,-37.57,0,*5A
1485428740.95,12178,8.38,73832.8,-2.31,-37.75,-37.93,0,*55
1485428742.19,12179,8.38,73828.5,-2.31,-36.85,-37.21,0,*53
1485428743.46,12180,8.38,73834.3,-2.31,-36.61,-36.79,0,*53
1485428744.69,12181,8.38,73832.8,-2.27,-36.55,-36.79,0,*52
1485428745.9,12182,8.38,73828.8,-2.27,-36.97,-37.27,0,*55
1485428747.14,12183,8.38,73834.3,-2.27,-37.33,-37.51,0,*5A
1485428748.35,12184,8.38,73832.5,-2.27,-38.05,-38.43,0,*5B
1485428749.59,12185,8.38,73834.5,-2.27,-37.75,-37.93,0,*50
1485428750.8,12186,8.38,73832.0,-2.27,-36.97,-37.33,0,*54
1485428752.06,12187,8.38,73828.5,-2.27,-36.91,-37.09,0,*5A
1485428753.32,12188,8.38,73832.3,-2.27,-36.61,-36.91,0,*5A
1485428754.58,12189,8.38,73834.3,-2.21,-37.81,-38.17,0,*52
1485428755.82,12190,8.38,73834.8,-2.23,-38.29,-38.61,0,*54
1485428757.06,12191,8.38,73834.8,-2.23,-37.93,-38.43,0,*5B
1485428758.27,12192,8.38,73834.5,-2.23,-37.75,-38.05,0,*52
1485428759.53,12193,8.38,73832.3,-2.23,-37.93,-38.23,0,*5F
1485428760.74,12194,8.38,73828.5,-2.23,-37.75,-38.05,0,*54
1485428761.95,12195,8.38,73828.0,-2.23,-36.97,-37.33,0,*52
1485428763.19,12196,8.38,73834.5,-2.23,-36.73,-37.09,0,*52
1485428764.45,12197,8.38,73826.3,-2.21,-36.91,-37.27,0,*51
1485428765.7,12198,8.38,73828.3,-2.21,-37.39,-37.45,0,*59
1485428766.99,12199,8.38,73828.5,-2.21,-37.09,-37.39,0,*50
1485428768.28,12200,8.38,73832.8,-2.21,-37.63,-37.81,0,*5C
1485428769.57,12201,8.38,73834.5,-2.21,-37.21,-37.39,0,*58
1485428770.87,12202,8.38,73832.8,-2.21,-37.21,-37.39,0,*5B
1485428772.15,12203,8.38,73832.0,-2.21,-36.91,-37.21,0,*59
1485428773.42,12204,8.38,73832.8,-2.19,-37.81,-38.23,0,*58
1485428774.68,12205,8.38,73834.5,-2.19,-37.63,-37.81,0,*52
1485428775.94,12206,8.38,73832.5,-2.19,-37.09,-37.39,0,*5E
1485428777.14,12207,8.38,73834.3,-2.19,-36.85,-37.03,0,*53
1485428778.34,12208,8.38,73834.3,-2.19,-37.27,-37.45,0,*57
1485428779.58,12209,8.38,73838.0,-2.19,-37.57,-37.99,0,*50
1485428780.78,12210,8.38,73832.5,-2.19,-38.17,-38.55,0,*5C
1485428782.01,12211,8.38,73830.8,-2.19,-37.45,-37.69,0,*55
1485428783.24,12212,8.38,73832.5,-2.19,-37.09,-37.27,0,*54
1485428784.49,12213,8.38,73832.8,-2.17,-37.33,-37.21,0,*54
1485428785.72,12214,8.38,73826.8,-2.19,-37.81,-38.05,0,*5D
1485428786.98,12215,8.38,73832.8,-2.17,-37.75,-37.99,0,*53
1485428788.22,12216,8.38,73830.3,-2.17,-38.17,-38.55,0,*54
1485428789.42,12217,8.38,73838.0,-2.19,-38.05,-38.35,0,*5E
1485428790.63,12218,8.38,73834.8,-2.19,-38.05,-38.35,0,*51
1485428791.89,12219,8.38,73834.0,-2.15,-37.63,-38.11,0,*55
1485428793.14,12220,8.38,73834.5,-2.19,-37.63,-37.93,0,*56
1485428794.35,12221,8.38,73832.8,-2.19,-38.55,-38.85,0,*55
1485428795.55,12222,8.38,73834.3,-2.19,-38.73,-38.85,0,*52
1485428796.8,12223,8.38,73834.0,-2.17,-38.35,-38.49,0,*5F
1485428798.03,12224,8.38,73828.3,-2.19,-38.23,-38.61,0,*5B
1485428799.24,12225,8.38,73834.5,-2.19,-38.17,-38.43,0,*5D
1485428800.47,12226,8.38,73832.0,-2.21,-38.35,-38.61,0,*55
1485428801.74,12227,8.38,73834.3,-2.21,-37.81,-38.05,0,*56
1485428803.0,12228,8.38,73832.8,-2.21,-37.45,-37.51,0,*5F
1485428804.22,12229,8.38,73830.3,-2.17,-37.33,-37.45,0,*5F
1485428805.45,12230,8.38,73830.0,-2.19,-37.99,-38.43,0,*50
1485428806.69,12231,8.38,73832.5,-2.19,-37.81,-38.17,0,*59
1485428807.95,12232,8.38,73834.5,-2.19,-37.39,-37.51,0,*54
1485428809.18,12233,8.38,73828.8,-2.17,-37.03,-37.15,0,*52
1485428810.44,12234,8.38,73830.0,-2.17,-37.45,-37.81,0,*5A
1485428811.73,12235,8.38,73832.3,-2.17,-37.21,-37.21,0,*53
1485428812.98,12236,8.38,73832.8,-2.17,-37.57,-37.63,0,*57
1485428814.22,12237,8.38,73834.0,-2.19,-37.27,-37.39,0,*50
1485428815.45,12238,8.38,73832.0,-2.19,-37.81,-38.17,0,*50
1485428816.71,12239,8.38,73834.8,-2.17,-37.03,-37.21,0,*5F
1485428817.95,12240,8.38,73832.0,-2.15,-37.15,-37.21,0,*54
1485428819.23,12241,8.38,73832.5,-2.13,-37.39,-37.69,0,*51
1485428820.49,12242,8.38,73834.5,-2.13,-37.09,-37.15,0,*5A
1485428821.77,12243,8.38,73830.3,-2.13,-37.09,-37.09,0,*56
1485428822.98,12244,8.38,73834.0,-2.15,-37.33,-37.33,0,*57
1485428824.24,12245,8.38,73838.8,-2.13,-37.39,-37.87,0,*55
1485428825.49,12246,8.38,73834.3,-2.13,-37.51,-37.75,0,*55
1485428826.78,12247,8.38,73834.3,-2.13,-37.39,-37.39,0,*52
1485428828.01,12248,8.38,73836.3,-2.15,-37.39,-37.45,0,*50
1485428829.27,12249,8.38,73836.3,-2.13,-36.91,-37.15,0,*51
1485428830.53,12250,8.38,73832.8,-2.11,-37.03,-37.09,0,*5C
1485428831.76,12251,8.38,73832.3,-2.11,-36.73,-36.85,0,*5E
1485428832.99,12252,8.38,73832.0,-2.09,-37.21,-37.33,0,*5E
1485428834.25,12253,8.38,73834.5,-2.09,-36.91,-37.09,0,*5C
1485428835.45,12254,8.38,73834.5,-2.09,-36.67,-36.85,0,*57
1485428836.69,12255,8.38,73836.0,-2.09,-37.03,-37.21,0,*5A
1485428837.95,12256,8.38,73834.3,-2.07,-37.45,-37.81,0,*5F
1485428839.18,12257,8.38,73834.3,-2.07,-36.67,-36.85,0,*5A
1485428840.44,12258,8.38,73834.5,-2.07,-37.45,-37.81,0,*51
1485428841.71,12259,8.38,73832.3,-2.05,-37.81,-38.11,0,*5C
1485428842.94,12260,8.38,73832.8,-2.05,-37.21,-37.27,0,*56
1485428844.16,12261,8.38,73830.5,-2.05,-37.27,-37.57,0,*56
1485428845.39,12262,8.38,73828.3,-2.07,-36.97,-37.03,0,*5C
1485428846.6,12263,8.38,73832.8,-2.05,-37.27,-37.57,0,*54
1485428847.84,12264,8.38,73836.8,-2.05,-37.03,-37.21,0,*54
1485428849.08,12265,8.38,73834.8,-2.01,-37.87,-38.23,0,*50
1485428850.31,12266,8.38,73838.3,-2.01,-38.11,-38.43,0,*55
1485428851.51,12267,8.38,73836.3,-2.01,-37.33,-37.57,0,*51
1485428852.75,12268,8.38,73838.3,-2.01,-38.43,-38.49,0,*56
1485428853.97,12269,8.38,73836.8,-2.01,-38.11,-38.43,0,*5A
1485428855.24,12270,8.38,73832.3,-2.07,-38.55,-38.91,0,*5B
1485428856.47,12271,8.38,73828.5,-2.05,-39.09,-39.29,0,*52
1485428857.68,12272,8.38,73830.5,-2.05,-37.57,-37.75,0,*53
1485428858.89,12273,8.38,73832.0,-2.05,-37.27,-37.57,0,*55
1485428860.18,12274,8.38,73832.8,-2.07,-37.81,-38.11,0,*51
1485428861.39,12275,8.38,73836.5,-2.05,-37.45,-37.57,0,*57
1485428862.6,12276,8.38,73832.5,-2.05,-37.27,-37.57,0,*50
1485428863.87,12277,8.38,73834.0,-2.05,-37.21,-37.63,0,*50
1485428865.09,12278,8.38,73834.3,-2.01,-37.33,-37.69,0,*52
1485428866.39,12279,8.38,73832.8,-1.99,-37.21,-37.51,0,*59
1485428867.64,12280,8.38,73834.8,-2.01,-37.93,-38.23,0,*5E
1485428868.91,12281,8.38,73834.5,-2.01,-37.21,-37.21,0,*5B
1485428870.14,12282,8.38,73832.8,-2.01,-36.91,-36.97,0,*5E
1485428871.42,12283,8.38,73828.3,-1.99,-36.79,-36.91,0,*5D
1485428872.67,12284,8.38,73832.0,-1.99,-37.33,-37.69,0,*53
1485428873.93,12285,8.38,73834.3,-1.99,-37.15,-37.21,0,*5A
1485428875.21,12286,8.38,73830.0,-1.99,-37.69,-37.93,0,*5B
1485428876.47,12287,8.38,73830.3,-1.99,-37.87,-38.11,0,*5F
1485428877.7,12288,8.38,73834.0,-1.99,-37.75,-38.05,0,*58
1485428878.95,12289,8.38,73824.8,-1.99,-37.39,-37.57,0,*59
1485428880.15,12290,8.38,73828.8,-1.97,-36.67,-36.85,0,*5B
1485428881.42,12291,8.38,73826.3,-1.95,-37.27,-37.63,0,*54
1485428882.67,12292,8.38,73834.0,-1.97,-37.99,-38.23,0,*5B
1485428883.9,12293,8.38,73828.0,-1.97,-38.35,-38.49,0,*5F
1485428885.11,12294,8.38,73830.5,-1.97,-37.87,-38.05,0,*56
1485428886.36,12295,8.38,73830.5,-1.95,-37.99,-38.17,0,*59
1485428887.6,12296,8.38,73830.0,-1.97,-37.87,-38.23,0,*50
1485428888.83,12297,8.38,73828.8,-1.97,-38.43,-38.79,0,*59
1485428890.03,12298,8.38,73828.8,-1.97,-38.17,-38.35,0,*5F
1485428891.26,12299,8.38,73830.3,-1.95,-37.27,-37.45,0,*58
1485428892.48,12300,8.38,73828.8,-1.97,-37.45,-37.69,0,*51
1485428893.68,12301,8.38,73824.0,-1.97,-37.15,-37.33,0,*5A
1485428894.94,12302,8.38,73828.0,-1.95,-37.99,-38.35,0,*56
1485428896.2,12303,8.38,73828.8,-1.97,-38.23,-38.49,0,*50
1485428897.45,12304,8.38,73828.8,-1.95,-37.69,-38.17,0,*5F
1485428898.68,12305,8.38,73832.3,-1.97,-38.35,-38.49,0,*51
1485428899.88,12306,8.38,73832.5,-1.97,-38.61,-38.97,0,*50
1485428901.09,12307,8.38,73834.3,-1.97,-37.87,-38.17,0,*5E
1485428902.35,12308,8.38,73830.0,-1.97,-37.69,-37.99,0,*58
1485428903.61,12309,8.38,73828.8,-1.95,-37.27,-37.63,0,*54
1485428904.87,12310,8.38,73828.0,-1.97,-37.63,-37.81,0,*52
1485428906.12,12311,8.38,73832.5,-1.97,-37.63,-37.99,0,*5A